Regional Weather Roundup
Issued by NWS Goodland, KS

Home | Current Version | Previous Version | Text Only | Print | Product List | Glossary Off
Versions: 1 2 3 4 5 6 7 8 9 10 11 12 13 14 15 16 17 18 19 20 21 22 23 24 25 26 27 28 29 30 31 32 33 34 35 36 37 38 39 40 41 42 43 44 45 46 47 48 49 50

000
ASUS43 KGLD 010459
RWRGLD

GOODLAND FORECAST AREA HOURLY WEATHER ROUNDUP
NATIONAL WEATHER SERVICE GOODLAND KS
1100 PM MDT MON AUG 31 2015

...OFFICIAL OBSERVATIONS...

CITY           SKY/WX    TMP DP  RH WIND       PRES   REMARKS
GOODLAND KS    CLOUDY    71  58  63 NW16G23   30.02S
HILL CITY KS   PTCLDY    79  54  41 S10       29.93R
IMPERIAL NEB   MOCLDY    73  61  65 W13       29.99R
MCCOOK NEB     PTCLDY    79  52  38 S10       29.90R
AKRON CO       MOCLDY    62  58  86 N9        30.08F
BURLINGTON CO  LGT RAIN  65  60  84 NW14      30.10S
LIMON CO       PTCLDY    57  56  96 NW7       30.14F
$$

...UNOFFICIAL OBSERVATIONS...

CITY           SKY/WX    TMP DP  RH WIND       PRES   REMARKS
COLBY KS       PTCLDY    79  55  44 SW13G23   30.00R
GOVE KS          N/A     73  32  22 MISG        N/A
LENORA KS        N/A     75  32  20 MISG        N/A
NORTON KS      CLEAR     75  46  35 S8        29.92R
SHARON SPRINGS   N/A     71  59  66 N16G26      N/A
KIT CARSON CO    N/A     65  62  89 MISG        N/A
YUMA CO          N/A     65  59  82 NW7         N/A
$$


USA.gov is the U.S. government's official web portal to all federal, state and local government web resources and services.